Location: Dąbrówka
(52.2799°N, 15.8070°E)
Time: 03:24:33
(UTC+02:00)

BUGSAT 1 - Visible Passes

Search period start: 17 June 2019 00:00
Search period end: 27 June 2019 00:00
Orbit: 558 x 604 km, 98.0° (Epoch: 16 June)

Date Brightness Start Highest point End Pass type
(mag) Time Alt. Az. Time Alt. Az. Time Alt. Az.
17 Jun ? 03:22:10 10° NNE 03:26:13 65° ESE 03:30:16 10° S visible
18 Jun ? 03:27:32 10° NNE 03:31:37 74° ESE 03:35:42 10° S visible
19 Jun ? 02:00:12 10° ENE 02:00:59 10° E 02:01:48 10° E visible
19 Jun ? 03:32:54 10° NNE 03:36:59 83° ESE 03:41:06 10° SSW visible
20 Jun ? 02:04:54 10° ENE 02:06:27 12° E 02:08:01 10° ESE visible
20 Jun ? 03:38:17 10° NNE 03:42:23 88° W 03:46:30 10° SSW visible
21 Jun ? 02:09:52 10° ENE 02:11:55 13° E 02:13:56 10° ESE visible
21 Jun ? 03:43:40 10° NNE 03:47:45 79° WNW 03:51:52 10° SSW visible
22 Jun ? 02:14:57 10° NE 02:17:20 15° E 02:19:45 10° SE visible
23 Jun ? 02:20:06 10° NE 02:22:48 17° E 02:25:29 10° SE visible
24 Jun ? 02:25:18 10° NE 02:28:14 19° E 02:31:10 10° SE visible
25 Jun ? 02:30:31 10° NE 02:33:40 21° E 02:36:49 10° SE visible
26 Jun ? 02:35:46 10° NE 02:39:05 23° E 02:42:26 10° SSE visible
